This is the latest recevied weather packets stored in our database for station/object KC5AV. If no packets are shown the sender has not sent any weather packets the latest 10 day(s).
| Time | Temp. | Humidity | Pressure | Rain* | Wind** | Luminosity | Snow |
|---|---|---|---|---|---|---|---|
| 1777527611 | 16.67° C | 97% | 1015.1 hPa | 0 mm | - | 0 W/m² | - |
| 1777527306 | 16.67° C | 97% | 1015.2 hPa | 0.51 mm | - | 0 W/m² | - |
| 1777527001 | 16.67° C | 97% | 1015.1 hPa | 4.32 mm | - | 0 W/m² | - |
| 1777526697 | 16.67° C | 97% | 1014.7 hPa | 6.6 mm | - | 0 W/m² | - |
| 1777526393 | 16.67° C | 97% | 1015.3 hPa | 14.99 mm | - | 0 W/m² | - |
| 1777526088 | 16.67° C | 97% | 1015.4 hPa | 14.48 mm | - | 0 W/m² | - |
| 1777525785 | 16.67° C | 96% | 1015.4 hPa | 9.65 mm | - | 0 W/m² | - |
| 1777525483 | 16.67° C | 96% | 1015.3 hPa | 7.11 mm | - | 0 W/m² | - |
| 1777525178 | 16.67° C | 96% | 1014.6 hPa | 0 mm | - | 0 W/m² | - |
| 1777524875 | 16.67° C | 96% | 1014.5 hPa | 0 mm | - | 0 W/m² | - |
| 1777524573 | 16.67° C | 96% | 1014.4 hPa | 0 mm | - | 0 W/m² | - |
| 1777524270 | 16.67° C | 96% | 1014.5 hPa | 0 mm | - | 0 W/m² | - |
| 1777523966 | 16.67° C | 96% | 1014.9 hPa | 0 mm | - | 0 W/m² | - |
| 1777523662 | 16.67° C | 96% | 1014.3 hPa | 0 mm | - | 0 W/m² | - |
| 1777523359 | 17.22° C | 96% | 1014.5 hPa | 0 mm | - | 0 W/m² | - |
| 1777523055 | 16.67° C | 95% | 1014 hPa | 0 mm | - | 0 W/m² | - |
| 1777522752 | 17.22° C | 96% | 1014.7 hPa | 0 mm | - | 0 W/m² | - |
| 1777522448 | 17.22° C | 95% | 1014.8 hPa | 0 mm | - | 0 W/m² | - |
| 1777522146 | 17.22° C | 96% | 1014.8 hPa | 0 mm | - | 0 W/m² | - |
| 1777521842 | 17.22° C | 96% | 1015.3 hPa | 0 mm | - | 0 W/m² | - |
| 1777521538 | 17.22° C | 96% | 1015.3 hPa | 0 mm | - | 0 W/m² | - |
| 1777521236 | 17.78° C | 96% | 1015.6 hPa | 0 mm | - | 0 W/m² | - |
| 1777520933 | 17.78° C | 96% | 1015.7 hPa | 0 mm | - | 0 W/m² | - |
| 1777520630 | 17.78° C | 96% | 1015.8 hPa | 0 mm | - | 0 W/m² | - |
| 1777520326 | 17.78° C | 96% | 1016 hPa | 0 mm | - | 0 W/m² | - |
* Rain latest hour (hover to see other rain measurements)
** Current wind speed in m/s (hover to see current wind gust speed)